COSMOS 2251 DEB

Satellite information

Favourite Embed

Satellite Type and Status

DEBRISIN ORBIT

Key statistics

Satellite COSMOS 2251 DEB at a glance.

Uptime

11650

Days in orbit

Revolutions

≈ 14.4

Per day

Orbit

LEO

Low Earth Orbit

Inclination

74.1

Latest

Satellite identification and parameters

Extended collection of information and parameters for COSMOS 2251 DEB.

Object identification

Identified? True

Debris? True

Object name: COSMOS 2251 DEB

International designator: 1993-036BXG

Object number (NORAD): 47052

Object ID (CCSDS): 47052

Country: COMMONWEALTH OF INDEPENDENT STATES (CIS)

Current information (Y/N): Y

RCS size: SMALL

Orbital parameters

Period: 100.343 minutes

Inclination: 74.052 deg

SMA: 7152.938 km

Apoapsis: 817.743 km

Periapsis: 731.862 km

RAAN: 25.7619 deg

Eccentricy: 0.0060032

Argument of periapsis: 156.7339 deg

Mean anomaly: 21.5727 deg

Mean motion: 14.3507993 rev/day

Mean motion (dot): 0.00000945 rev/day2

B* drag term: 0.00033341 1/REarth

Two-line elements (TLE)

Creation date: May 6, 2025, 3:54 a.m.

Reference frame: TEME

Reference center: EARTH

Epoch: May 5, 2025, 10:58 a.m. UTC

TLE line 0: 0 COSMOS 2251 DEB

TLE line 1: 1 47052U 93036BXG 25125.45694588 .00000945 00000-0 33341-3 0 9998

TLE line 2: 2 47052 74.0520 25.7619 0060032 156.7339 21.5727 14.35079930586142

Live tracking on map

Real-time ground track for satellite COSMOS 2251 DEB.

In-orbit conjunctions

A list of the most updated potential collisions computed for object COSMOS 2251 DEB.

Target Orbit TCA Probability of collision Miss distance Type
CZ-6A DEB LEO 2025-03-08 01:01:26 0.0001241769 214.0 (m) DEBRIS
NOAA 17 DEB SSO 2024-09-27 19:41:49 0.0004153653 737.0 (m) DEBRIS

Associated space launch

Military communications satellite. Destroyed in a collision with Iridium 33.

COSMOS 2251 DEB was lifted into orbit during the mission ‘Kosmos-3M | Strela-2M 51’, on board a Kosmos-3M space rocket.

The launch took place on June 16, 1993, 4:17 a.m. from 132/1 (132L).

For more information about the launch, click the button.

Launch to space Kosmos-3M | Strela-2M 51
Kosmos-3M | Strela-2M 51

Agency: N/A

Status: Launch Successful

Launch date: June 16, 1993, 4:17 a.m. UTC

Rocket: Kosmos-3M

Launch pad: 132/1 (132L)

Location: Plesetsk Cosmodrome, Russian Federation

...

Latest news about this satellite

There are no fresh news available about this satellite. Check back as we update our databases every day.


Newsletter sign-up

Weekly statistics, charts and insights to help you stay on top of the space industry.